TimeEDT,TemperatureF,Dew PointF,Humidity,Sea Level PressureIn,VisibilityMPH,Wind Direction,Wind SpeedMPH,Gust SpeedMPH,PrecipitationIn,Events,Conditions,WindDirDegrees,DateUTC
12:51 AM,39.0,37.0,93,29.89,10.0,SSW,3.5,-,N/A,,Partly Cloudy,200,2013-10-19 04:51:00
1:51 AM,36.0,35.1,97,29.90,6.0,SW,4.6,-,N/A,,Clear,220,2013-10-19 05:51:00
2:09 AM,35.6,35.6,100,29.87,2.5,SSW,4.6,-,N/A,,Clear,210,2013-10-19 06:09:00
2:16 AM,35.6,33.8,93,29.87,6.0,SW,4.6,-,N/A,,Clear,220,2013-10-19 06:16:00
2:42 AM,33.8,33.8,100,29.87,1.8,SW,3.5,-,N/A,,Clear,230,2013-10-19 06:42:00
2:51 AM,32.0,32.0,100,29.90,1.8,Calm,Calm,-,N/A,,Clear,0,2013-10-19 06:51:00
2:54 AM,32.0,32.0,100,29.87,3.0,Calm,Calm,-,N/A,,Clear,0,2013-10-19 06:54:00
2:59 AM,33.8,30.2,87,29.87,1.2,Calm,Calm,-,N/A,,Partly Cloudy,0,2013-10-19 06:59:00
3:01 AM,33.8,30.2,87,29.87,0.8,Calm,Calm,-,N/A,,Mist,0,2013-10-19 07:01:00
3:09 AM,32.0,30.2,93,29.86,1.5,SW,3.5,-,N/A,,Partly Cloudy,220,2013-10-19 07:09:00
3:16 AM,32.0,32.0,100,29.87,6.0,SW,3.5,-,N/A,,Partly Cloudy,220,2013-10-19 07:16:00
3:51 AM,30.9,30.9,100,29.90,8.0,SW,5.8,-,N/A,,Clear,230,2013-10-19 07:51:00
4:51 AM,33.1,33.1,100,29.90,5.0,WSW,5.8,-,N/A,,Clear,240,2013-10-19 08:51:00
5:51 AM,32.0,32.0,100,29.91,7.0,SSW,3.5,-,N/A,,Partly Cloudy,210,2013-10-19 09:51:00
6:25 AM,32.0,30.2,93,29.87,1.8,Calm,Calm,-,N/A,,Partly Cloudy,0,2013-10-19 10:25:00
6:37 AM,30.2,30.2,100,29.87,0.8,Calm,Calm,-,N/A,,Mist,0,2013-10-19 10:37:00
6:51 AM,30.9,30.9,100,29.90,2.0,Calm,Calm,-,N/A,,Overcast,0,2013-10-19 10:51:00
6:58 AM,30.2,30.2,100,29.86,4.0,Calm,Calm,-,N/A,,Overcast,0,2013-10-19 10:58:00
7:03 AM,30.2,30.2,100,29.86,1.5,Calm,Calm,-,N/A,,Overcast,0,2013-10-19 11:03:00
7:05 AM,30.2,30.2,100,29.86,0.5,Calm,Calm,-,N/A,Fog,Light Freezing Fog,0,2013-10-19 11:05:00
7:13 AM,30.2,28.4,93,29.86,0.2,Calm,Calm,-,N/A,Fog,Light Freezing Fog,0,2013-10-19 11:13:00
7:26 AM,30.2,28.4,93,29.86,0.2,Calm,Calm,-,N/A,Fog,Light Freezing Fog,0,2013-10-19 11:26:00
7:51 AM,30.0,28.9,96,29.90,0.2,Calm,Calm,-,N/A,Fog,Light Freezing Fog,0,2013-10-19 11:51:00
8:09 AM,30.2,30.2,100,29.87,0.5,Calm,Calm,-,N/A,Fog,Light Freezing Fog,0,2013-10-19 12:09:00
8:13 AM,30.2,30.2,100,29.87,1.0,Calm,Calm,-,N/A,,Clear,0,2013-10-19 12:13:00
8:23 AM,30.2,30.2,100,29.87,3.0,Calm,Calm,-,N/A,,Clear,0,2013-10-19 12:23:00
8:51 AM,37.0,36.0,96,29.90,4.0,Calm,Calm,-,N/A,,Clear,0,2013-10-19 12:51:00
9:51 AM,45.0,42.1,90,29.89,9.0,South,4.6,-,N/A,,Clear,190,2013-10-19 13:51:00
10:51 AM,53.1,43.0,69,29.87,10.0,SSW,12.7,-,N/A,,Scattered Clouds,210,2013-10-19 14:51:00
11:51 AM,54.0,42.1,64,29.86,10.0,SW,15.0,-,N/A,,Mostly Cloudy,220,2013-10-19 15:51:00
12:51 PM,55.0,41.0,59,29.83,10.0,SSW,16.1,-,N/A,,Overcast,210,2013-10-19 16:51:00
1:51 PM,55.0,41.0,59,29.82,10.0,WSW,12.7,-,N/A,,Overcast,240,2013-10-19 17:51:00
2:51 PM,55.9,41.0,57,29.79,10.0,South,11.5,-,N/A,,Overcast,190,2013-10-19 18:51:00
3:51 PM,55.9,42.1,60,29.77,10.0,South,8.1,-,N/A,,Mostly Cloudy,180,2013-10-19 19:51:00
4:51 PM,55.0,41.0,59,29.75,10.0,SSW,8.1,-,N/A,,Mostly Cloudy,200,2013-10-19 20:51:00
5:51 PM,54.0,41.0,62,29.73,10.0,SSE,6.9,-,N/A,,Scattered Clouds,160,2013-10-19 21:51:00
6:51 PM,52.0,39.0,61,29.71,10.0,South,6.9,-,N/A,,Mostly Cloudy,170,2013-10-19 22:51:00
7:51 PM,52.0,37.9,59,29.69,10.0,South,15.0,20.7,N/A,,Overcast,190,2013-10-19 23:51:00
8:51 PM,50.0,39.9,68,29.68,10.0,South,19.6,25.3,0.00,,Overcast,190,2013-10-20 00:51:00
9:51 PM,46.9,42.1,83,29.66,7.0,South,10.4,-,0.00,Rain,Light Rain,190,2013-10-20 01:51:00
10:51 PM,46.0,44.1,93,29.63,6.0,South,5.8,-,0.01,Rain,Light Rain,180,2013-10-20 02:51:00
11:51 PM,46.0,43.0,89,29.60,6.0,South,9.2,-,0.03,Rain,Light Rain,190,2013-10-20 03:51:00